Weather History for Miami, FL

Change the Weather History Date:

Thursday, November 15, 2012

  Actual Average Record
Temperature  
Mean Temperature 76 °F 75 °F  
Max Temperature 82 °F 82 °F 88 °F (2008)
Min Temperature 69 °F 68 °F 44 °F (1975)
Degree Days  
Heating Degree Days 0 0  
Month to date heating degree days 1 0  
Since 1 July heating degree days 1 0  
Cooling Degree Days 11 10  
Month to date cooling degree days 117 166  
Year to date cooling degree days 4356 4238  
Growing Degree Days 26 (Base 50)    
Moisture  
Dew Point 63 °F    
Average Humidity 63    
Maximum Humidity 79    
Minimum Humidity 47    
Precipitation  
Precipitation 0.00 in 0.11 in 3.41 in (1994)
Month to date precipitation 0.24 1.91  
Year to date precipitation 86.17 58.50  
Snow  
Snow 0.00 in - - ()
Month to date snowfall 0.0  
Since 1 July snowfall 0.0  
Since 1 September snowfall 0.0  
Snow Depth 0.00 in    
Sea Level Pressure  
Sea Level Pressure 30.06 in    
Wind  
Wind Speed 5 mph (NE)    
Max Wind Speed 12 mph    
Max Gust Speed 23 mph    
Visibility 10 miles    
Events      
T = Trace of Precipitation, MM = Missing Value Source: NWS Daily Summary

Daily Weather History Graph

Daily Weather History Graph

Search for Another Location

Airport:

Trip Planner

Search our weather history database for the weather conditions in past years. The results will help you decide how hot, cold, wet, or windy it might be!

Date:

Astronomy

Nov. 15, 2012 Rise Set
Actual Time 6:39 AM EST 5:32 PM EST
Civil Twilight 6:15 AM EST 5:56 PM EST
Nautical Twilight 5:47 AM EST 6:24 PM EST
Astronomical Twilight 5:19 AM EST 6:51 PM EST
Moon 8:27 AM EST (11/15) 7:28 PM EST (11/15)
Length of Visible Light 11h 41m
Length of Day
10h 52m
Waxing Crescent, 5% of the Moon is Illuminated
Nov 15
Waxing Crescent
Nov 20
First Quarter
Nov 28
Full
Dec 6
Last Quarter
Dec 13
New

Hourly Weather History & Observations

Time (EST) Temp. Heat Index Dew Point Humidity Pressure Visibility Wind Dir Wind Speed Gust Speed Precip Events Conditions
12:53 AM 72.0 °F - 64.9 °F 78% 30.07 in 10.0 mi North 5.8 mph - N/A   Partly Cloudy
1:53 AM 71.1 °F - 64.0 °F 78% 30.07 in 10.0 mi North 4.6 mph - N/A   Mostly Cloudy
2:53 AM 71.1 °F - 63.0 °F 75% 30.05 in 10.0 mi NNE 5.8 mph - N/A   Clear
3:53 AM 72.0 °F - 64.0 °F 76% 30.04 in 10.0 mi NNE 3.5 mph - N/A   Partly Cloudy
4:53 AM 72.0 °F - 63.0 °F 73% 30.04 in 10.0 mi North 4.6 mph - N/A   Scattered Clouds
5:53 AM 70.0 °F - 63.0 °F 78% 30.06 in 10.0 mi NNW 4.6 mph - N/A   Scattered Clouds
6:53 AM 69.1 °F - 63.0 °F 81% 30.06 in 10.0 mi Calm Calm - N/A   Partly Cloudy
7:53 AM 73.0 °F - 64.0 °F 73% 30.08 in 10.0 mi NNE 4.6 mph - N/A   Scattered Clouds
8:53 AM 77.0 °F - 64.9 °F 66% 30.09 in 10.0 mi Calm Calm - N/A   Partly Cloudy
9:53 AM 79.0 °F - 63.0 °F 58% 30.10 in 10.0 mi Calm Calm - N/A   Scattered Clouds
10:53 AM 80.1 °F 81.2 °F 62.1 °F 54% 30.10 in 10.0 mi East 4.6 mph - N/A   Scattered Clouds
11:53 AM 80.1 °F 81.1 °F 61.0 °F 52% 30.08 in 10.0 mi ENE 8.1 mph - N/A   Mostly Cloudy
12:53 PM 82.0 °F 82.7 °F 61.0 °F 49% 30.06 in 10.0 mi East 8.1 mph - N/A   Scattered Clouds
1:53 PM 81.0 °F 81.7 °F 61.0 °F 50% 30.04 in 10.0 mi ENE 6.9 mph - N/A   Mostly Cloudy
2:53 PM 81.0 °F 81.7 °F 61.0 °F 50% 30.04 in 10.0 mi East 9.2 mph - N/A   Scattered Clouds
3:53 PM 79.0 °F - 61.0 °F 54% 30.04 in 10.0 mi East 8.1 mph - N/A   Scattered Clouds
4:53 PM 77.0 °F - 60.1 °F 56% 30.04 in 10.0 mi East 9.2 mph - N/A   Scattered Clouds
5:53 PM 75.9 °F - 60.1 °F 58% 30.05 in 10.0 mi ENE 8.1 mph - N/A   Scattered Clouds
6:53 PM 75.9 °F - 62.1 °F 62% 30.06 in 10.0 mi NE 4.6 mph - N/A   Scattered Clouds
7:53 PM 75.9 °F - 63.0 °F 64% 30.08 in 10.0 mi Calm Calm - N/A   Mostly Cloudy
8:53 PM 75.0 °F - 63.0 °F 66% 30.09 in 10.0 mi NNE 4.6 mph - N/A   Mostly Cloudy
9:53 PM 75.0 °F - 63.0 °F 66% 30.08 in 10.0 mi North 4.6 mph - N/A   Mostly Cloudy
10:53 PM 73.9 °F - 66.0 °F 76% 30.08 in 10.0 mi North 5.8 mph - N/A   Scattered Clouds
11:53 PM 72.0 °F - 64.9 °F 78% 30.07 in 10.0 mi Variable 3.5 mph - N/A   Mostly Cloudy